Location: Poughquag
(41.6090°N, 73.6820°W)
Time: 12:43:27
(UTC-04:00)

Explorer 11/Cluster Stage 4 - Pass Details

Date: 06 June 2020
Orbit: 467 x 1259 km, 28.8° (Epoch: 05 July)

Event Time Altitude Azimuth Distance (km) Brightness Sun altitude
Rises 05:51:32 0° 240° (WSW) 3,036 8.9 4.1°
Reaches altitude 10° 05:54:11 10° 225° (SW) 2,252 8.4 4.6°
Maximum altitude 05:58:21 23° 174° (S) 1,726 8.2 5.3°
Drops below altitude 10° 06:03:14 10° 125° (SE) 2,691 9.8 6.1°
Sets 06:06:43 0° 112° (ESE) 3,792 10.8 6.7°
